User: anonymous   Login
Location: Unspecified
(0.0000°N, 0.0000°E)
Time: 04:05:13
(UTC+02:00)
Language:

Cosmos 1626 Rocket - Orbit

View from above orbital plane
View from above orbital plane
View from above satellite
View from above satellite

Ground track
Ground track

The orbit data is extracted from the following two-line orbital elements,

1 15495U 85009B   15210.27044600  .00000173  00000-0  17912-4 0  9993
2 15495 082.5259 112.6906 0021836 083.2900 277.0799 14.83588646647814
Epoch (UTC): 29 July 2015 06:29:26
Eccentricity: 0.0021836
inclination: 82.5259°
perigee height: 603 km
apogee height: 633 km
right ascension of ascending node: 112.6906°
argument of perigee: 83.2900°
revolutions per day: 14.83588646
mean anomaly at epoch: 277.0799°
orbit number at epoch: 64781

The dashed part of the orbit path shows where the satellite is in the earth's shadow,  

DLR